MyTimes logo

TIMES

Webb Imagery

16/05/1999
Brighton Bay Run
10km Run

(Click on competitor name to view personalised results)

Name
Race #
Category
Time
(h:mm:ss)
Avg Speed
km/hr
OAll
Place
Cat
Place
WALLACE T#454Junior Male Runner0:32:363:16 11
HORE Steve#531Adult Male Runner0:32:493:17 21
HILLARDT Michael#543Adult Male Runner0:34:123:25 32
FLEURUS Julien#521Adult Male Runner0:35:003:30 43
SCOTT A#415Adult Male Runner0:35:033:30 54
VUKOJA M#408Adult Male Runner0:35:213:32 65
STOCK P#355Adult Male Runner0:35:363:34 76
POWLEY R#369Adult Male Runner0:36:063:37 87
MC GEE Neil#654Adult Male Runner0:36:163:38 98
PARKER Linton#622Adult Male Runner0:36:223:38 109
PERRETT C#455Junior Male Runner0:36:263:39 112
LOUW Eric#634Adult Male Runner0:36:363:40 1210
CAMERON Stuart#619Adult Male Runner0:36:543:41 1311
STAIN Matt#651Adult Male Runner0:37:013:42 1412
WILSON Kim#500Adult Female Runner0:37:193:44 151
WHITE P#465Adult Male Runner0:37:263:45 1613
WHITEHAND Clyde#506Adult Male Runner0:37:293:45 1714
REIDIE David#559Adult Male Runner0:37:323:45 1815
MANTELL P#442Adult Male Runner0:37:333:45 1916
SAHELY Elias#590Adult Male Runner0:37:363:46 2017
GLOVER Lawrence#607Adult Male Runner0:37:373:46 2118
LIDDIATT P#368Adult Male Runner0:37:503:47 2219
NEWSTADT Gary#548Adult Male Runner0:37:563:48 2320
BENCE Peter#642Adult Male Runner0:37:583:48 2421
GAMBLE M#398Adult Male Runner0:38:053:49 2522
JENNINGS DAVID#461Adult Male Runner0:38:063:49 2623
NEWPORT Stephen#605Adult Male Runner0:38:093:49 2724
SADDINGTON Glenn#563Adult Male Runner0:38:213:50 2825
RANSOM K#374Adult Male Runner0:38:373:52 2926
SHARPE Craig#679Adult Male Runner0:38:483:53 3027
ROKAHR D#437Adult Male Runner0:38:523:53 3128
BAN Paul#639Adult Male Runner0:38:533:53 3229
DILLON Tony#539Adult Male Runner0:39:073:55 3330
FOGARTY T#416Adult Male Runner0:39:113:55 3431
GEE Ian#578Adult Male Runner0:39:153:55 3532
MURRAY Rowan#107Adult Male Runner0:39:253:56 3633
SAUNDERSON A#458Junior Male Runner0:39:283:57 373
HANSEN Benn#630Junior Male Runner0:39:293:57 384
BRYER L#379Adult Male Runner0:39:303:57 3934
BURGESS A#405Adult Male Runner0:39:303:57 4035
LYONS I#361Adult Male Runner0:39:353:57 4136
APPELBE BIL#380Adult Male Runner0:39:393:58 4237
CURTIS Paul#529Adult Male Runner0:39:423:58 4338
BURNELL A#450Adult Male Runner0:39:453:58 4439
CLANCY Rob#656Adult Male Runner0:39:543:59 4540
QUINTAL P#365Adult Male Runner0:39:554:00 4641
DEVER Matt#527Adult Male Runner0:39:574:00 4742
ALLSOP Paul#584Adult Male Runner0:40:044:00 4843
MAL Mal#516Adult Male Runner0:40:094:01 4944
WALLACE J#413Adult Male Runner0:40:114:01 5045
KORFIATIS Chris#596Adult Male Runner0:40:224:02 5146
WEEKS P#395Adult Male Runner0:40:244:02 5247
CARMAN Brett#507Adult Male Runner0:40:274:03 5348
LOUEY M#417Adult Male Runner0:40:324:03 5449
GALE Graham#595Adult Male Runner0:40:354:04 5550
PIROLA-MERLO Andrew#509Adult Male Runner0:40:384:04 5651
STEVENS Jane#591Adult Female Runner0:40:434:04 572
ANDERSON Garry#618Adult Male Runner0:40:524:05 5852
MC CORMACK Mark#593Adult Male Runner0:40:574:06 5953
SOLTERBECK Ann#612Adult Female Runner0:40:594:06 603
FIUME M#375Adult Male Runner0:41:064:07 6154
NELSON Peter#643Adult Male Runner0:41:074:07 6255
WHITE R#464Adult Male Runner0:41:114:07 6356
ANDREWS Fiona#644Adult Female Runner0:41:294:09 644
MORRISSEY Pete#523Adult Male Runner0:41:304:09 6557
HUVA R#412Adult Male Runner0:41:314:09 6658
ROBERTSON Stewart#512Adult Male Runner0:41:344:09 6759
DYSON W#358Adult Male Runner0:41:474:11 6860
LANZER Henry#609Adult Male Runner0:41:524:11 6961
WALLACE T#345Adult Female Runner0:41:564:12 705
RAYSON Tony#515Adult Male Runner0:42:024:12 7162
WATKINS Robert#557Adult Male Runner0:42:034:12 7263
DALTON R#410Adult Male Runner0:42:124:13 7364
EDWARDS A#401Adult Male Runner0:42:174:14 7465
NEVILLE Peter#514Adult Male Runner0:42:244:14 7566
COOK Ian#665Adult Male Runner0:42:264:15 7667
PAPWORTH S#459Adult Male Runner0:42:394:16 7768
KENTISH David#132Junior Male Runner0:42:464:17 785
DESSENT M#462Adult Male Runner0:42:554:18 7969
SPRZAGALA J#432Adult Male Runner0:42:584:18 8070
ROSS Andrew#520Adult Male Runner0:42:584:18 8171
BOWRING K#376Junior Male Runner0:42:594:18 826
HUDDER Matt#566Adult Male Runner0:43:024:18 8372
CAHILL Andrew#624Adult Male Runner0:43:244:20 8473
KURMAN Ronald#587Adult Male Runner0:43:294:21 8574
EASTON Neil#664Adult Male Runner0:43:344:21 8675
GONSHOO P#409Adult Male Runner0:43:354:22 8776
GIESEN S#428Adult Male Runner0:43:384:22 8877
OPIE Ron#538Adult Male Runner0:43:544:23 8978
SAI Kyoji#155Adult Male Runner0:43:544:23 9079
MCCANN P#388Adult Male Runner0:43:574:24 9180
WILSON M#334Adult Female Runner0:43:584:24 926
FITZGERALD Paul#635Adult Male Runner0:43:594:24 9381
YOEMANS Emma#532Adult Female Runner0:44:004:24 947
ANDERSON Alan#637Adult Male Runner0:44:134:25 9582
PAGE A#406Adult Male Runner0:44:144:25 9683
STEEN Craig#620Adult Male Runner0:44:154:26 9784
O'BRIEN Vincent#513Adult Male Runner0:44:264:27 9885
HAMILTON B#325Junior Female Runner0:44:284:27 991
WILLOUGHBY Brad#655Adult Male Runner0:44:294:27 10086
HOFER A#387Adult Male Runner0:44:354:28 10187
CHORLEY Nancy#680Adult Female Runner0:44:384:28 1028
WATSON Grant#646Adult Male Runner0:44:424:28 10388
O'BRIEN P#370Adult Male Runner0:44:434:28 10489
FINLEY Robert#623Adult Male Runner0:44:454:29 10590
STUART David#629Adult Male Runner0:44:474:29 10691
DAVIS-JONES David#633Adult Male Runner0:44:474:29 10792
PATERSON C#384Adult Male Runner0:44:484:29 10893
VERHAGEN H#429Adult Male Runner0:44:494:29 10994
KELLY B#433Adult Male Runner0:44:494:29 11095
SCALA M#426Adult Male Runner0:44:534:29 11196
HEALEY R#419Adult Male Runner0:44:554:30 11297
STEVEN J#436Adult Male Runner0:44:584:30 11398
LEE Richard#606Adult Male Runner0:44:584:30 11499
BARROW Jane#547Adult Female Runner0:45:074:31 1159
DAY Christian#608Adult Male Runner0:45:104:31 116100
SWANN D#338Adult Female Runner0:45:134:31 11710
CLARK Noreen#662Adult Female Runner0:45:154:32 11811
PROUDFOOT G#396Adult Male Runner0:45:174:32 119101
BAUM Murray#628Adult Male Runner0:45:244:32 120102
WILSON W#446Adult Male Runner0:45:294:33 121103
MORISHAGE Hiro#660Adult Male Runner0:45:294:33 122104
ELMSLIE Martin#601Adult Male Runner0:45:324:33 123105
MC CANN Brian#636Adult Male Runner0:45:334:33 124106
HARARI Michael#585Adult Male Runner0:45:354:34 125107
RUSSELL J#373Adult Male Runner0:45:364:34 126108
BARNARD Brett#610Adult Male Runner0:45:374:34 127109
MUIR C#319Adult Female Runner0:45:384:34 12812
RANSOM Peter#54Adult Male Runner0:45:404:34 129110
MORREY J#310Adult Female Runner0:45:534:35 13013
SAMPSON Bernie#645Adult Male Runner0:46:004:36 131111
GRANT P#371Adult Male Runner0:46:054:36 132112
LYNCH P#402Adult Male Runner0:46:104:37 133113
PHIPPS Roger#567Adult Male Runner0:46:174:38 134114
TAYLOR J#360Adult Male Runner0:46:174:38 135115
CURLIS Sean#582Adult Male Runner0:46:304:39 136116
COLEMAN Dennis#625Adult Male Runner0:46:334:39 137117
SHAW J#438Adult Male Runner0:46:374:40 138118
VAUGHAN A#316Adult Female Runner0:46:414:40 13914
HANSEN Colin#648Adult Male Runner0:46:484:41 140119
ELEFANTY Andrew#614Adult Male Runner0:46:584:42 141120
SUSANS G#420Adult Male Runner0:47:064:43 142121
BROWNE B#440Adult Male Runner0:47:084:43 143122
PARKES John#561Adult Male Runner0:47:094:43 144123
MARSON R#439Adult Male Runner0:47:094:43 145124
O'CONNELL A#323Adult Female Runner0:47:224:44 14615
O'DONNELL P#378Adult Male Runner0:47:274:45 147125
RING 9808 4474#144Adult Male Runner0:47:294:45 148126
CHALK T#346Adult Female Runner0:47:304:45 14916
GREK M#397Adult Male Runner0:47:314:45 150127
DONALDSON Ross#541Adult Male Runner0:47:354:46 151128
DAVIES K#418Adult Male Runner0:47:424:46 152129
SWINGLER T#392Adult Male Runner0:47:484:47 153130
KARANICOLAS A#425Adult Male Runner0:47:534:47 154131
MARTIN P#445Adult Female Runner0:47:554:48 15517
ROBERTS T#447Adult Male Runner0:47:584:48 156132
WOMIS Carl#522Adult Male Runner0:48:024:48 157133
TANNER Tony#154Adult Male Runner0:48:034:48 158134
WOODHEAD S#391Adult Male Runner0:48:044:48 159135
SMITH M#302Junior Female Runner0:48:094:49 1602
MCMILLAN A#329Adult Female Runner0:48:144:49 16118
ROFER Jeremy 9#1Adult Male Runner0:48:194:50 162136
KALAITZIS Mary#519Adult Female Runner0:48:214:50 16319
BLACKHOUSE Steven#604Adult Male Runner0:48:264:51 164137
BAKER Rod#598Adult Male Runner0:48:334:51 165138
TURZYNSKA M#350Adult Female Runner0:48:364:52 16620
GRAHAM T#386Adult Male Runner0:48:434:52 167139
KIMBERLEY Noel#674Adult Male Runner0:48:494:53 168140
O'BRIEN Jenny#562Adult Female Runner0:48:564:54 16921
PURCELL Laurie#560Adult Male Runner0:49:014:54 170141
BEAK Anthony#537Adult Male Runner0:49:024:54 171142
POPKISS T#400Adult Male Runner0:49:034:54 172143
WRIGHT M#324Adult Female Runner0:49:044:54 17322
HUDSON R#430Adult Male Runner0:49:054:54 174144
BAIRD Robert#613Adult Male Runner0:49:144:55 175145
SHAW R#343Adult Female Runner0:49:184:56 17623
WASHINGTON J#383Adult Male Runner0:49:234:56 177146
ALLARD Bert#554Adult Male Runner0:49:354:57 178147
COLL Jerry#611Adult Male Runner0:49:555:00 179148
O TOOLE John#616Adult Male Runner0:49:565:00 180149
WOON Alice#589Adult Female Runner0:49:575:00 18124
HAMILTON L#326Adult Female Runner0:49:595:00 18225
DAWSON Ian#600Adult Male Runner0:49:595:00 183150
FRENCH James#676Adult Male Runner0:50:035:00 184151
GRIBBLE Stuart#528Adult Male Runner0:50:045:00 185152
BAKER Katie#530Adult Female Runner0:50:075:01 18626
HUTTON Felicity#617Adult Female Runner0:50:105:01 18727
WIGNALL Sarah#632Adult Female Runner0:50:175:02 18828
RATTRAY K#411Adult Male Runner0:50:225:02 189153
KARAMITOS Jim#627Adult Male Runner0:50:245:02 190154
BELL ANN#331Adult Female Runner0:50:245:02 19129
RUSSELL JOA#313Adult Female Runner0:50:325:03 19230
KING Joanne#583Adult Female Runner0:50:395:04 19331
ALIJA Bekim#678Adult Male Runner0:50:505:05 194155
KATUN Harry#576Adult Male Runner0:50:515:05 195156
GUERTS Andrew#647Adult Male Runner0:50:565:06 196157
SHELLARD Peter#575Adult Male Runner0:50:575:06 197158
ELTERMAN Julie#542Adult Female Runner0:51:035:06 19832
FLEURUS Alain#551Adult Male Runner0:51:075:07 199159
GEDDES C(C)#366Adult Male Runner0:51:095:07 200160
SANTVOORT Cora#659Adult Female Runner0:51:105:07 20133
SADLER Aussie#511Adult Male Runner0:51:205:08 202161
FINCHAM C#434Adult Male Runner0:51:275:09 203162
DAVID E#351Adult Female Runner0:51:285:09 20434
GRANT C#318Adult Female Runner0:51:295:09 20535
TRUMBLE J#317Adult Female Runner0:51:295:09 20636
LALICKER H#327Adult Female Runner0:51:355:10 20737
RANN Megan#552Adult Female Runner0:51:365:10 20838
LAW Joseph#517Adult Male Runner0:51:515:11 209163
EVERETT Rosemary#621Adult Female Runner0:51:545:11 21039
HENDRICK P#421Adult Male Runner0:52:005:12 211164
KELLY Bob#661Adult Male Runner0:52:015:12 212165
RAYMENT S#308Adult Female Runner0:52:175:14 21340
BUTLER E#362Adult Male Runner0:52:235:14 214166
KULKARNI J#309Adult Female Runner0:52:235:14 21541
DACY Julie#556Adult Female Runner0:52:305:15 21642
TREWIN Aaron#508Junior Male Runner0:52:395:16 2177
BLACKMUR E#367Adult Male Runner0:52:405:16 218167
LEE L#394Adult Male Runner0:52:415:16 219168
PSAILA Wendy#518Adult Female Runner0:52:455:16 22043
NEWTON P#359Adult Male Runner0:52:575:18 221169
COOPER Pat#640Adult Male Runner0:53:075:19 222170
MILLER Robert#510Adult Male Runner0:53:085:19 223171
KEEN Jackie#553Adult Female Runner0:53:095:19 22444
LARDNER J#348Adult Female Runner0:53:115:19 22545
DENVIR E#344Adult Female Runner0:53:125:19 22646
MORAN Steve#534Adult Male Runner0:53:135:19 227172
FIELD James#667Junior Male Runner0:53:175:20 2288
TALBOT Richard#681Adult Male Runner0:53:185:20 229173
BEDFORD Martin#569Adult Male Runner0:53:205:20 230174
MCMILLAN S#328Adult Female Runner0:53:235:20 23147
JACKSON Peter#594Adult Male Runner0:53:245:20 232175
LYONS Durianne#615Adult Male Runner0:53:355:21 233176
STERN Harvey#503Adult Male Runner0:53:525:23 234177
EDWARDS Olivia#550Junior Female Runner0:54:055:24 2353
MC GETRICK Sarah#641Adult Female Runner0:54:095:25 23648
HOWARD Chris#572Adult Male Runner0:54:115:25 237178
MARTIN G#303Adult Male Runner0:54:125:25 238179
LYONS Peter#568Adult Male Runner0:54:245:26 239180
MC KGOWN Colin#599Adult Male Runner0:54:305:27 240181
NUGENT-JONES F#339Adult Female Runner0:54:315:27 24149
LAWLESS Tom#571Adult Male Runner0:54:465:29 242182
THOMSON Stephanie#558Adult Female Runner0:54:485:29 24350
CUFF Elizabeth#652Adult Female Runner0:54:585:30 24451
MCCRAITH C#444Adult Female Runner0:55:035:30 24552
SILLERI K#340Adult Female Runner0:55:215:32 24653
HOEFNER N#330Adult Female Runner0:55:235:32 24754
KUZIO S#305Adult Female Runner0:55:305:33 24855
WOODS Y#347Adult Female Runner0:55:355:34 24956
BURGESS J#315Adult Female Runner0:55:385:34 25057
MORREY B#363Adult Male Runner0:55:395:34 251183
MC CAFFREY Max#677Adult Male Runner0:55:465:35 252184
WEBSTER Ron#573Adult Male Runner0:55:555:36 253185
MUIR Jill#545Adult Female Runner0:56:055:37 25458
SHELLARD Romy#574Junior Female Runner0:56:095:37 2554
WELLS Ken#658Adult Male Runner0:56:195:38 256186
FITZSIMON P#321Adult Female Runner0:56:345:39 25759
EDWARDS Russell#549Adult Male Runner0:56:435:40 258187
FIELD James#682Adult Male Runner0:56:475:41 259188
CONLON Michael#657Adult Male Runner0:56:575:42 260189
MIGLIAZZO Marena#673Adult Male Runner0:57:255:44 261190
SCHOLTEN Susan#525Adult Female Runner0:57:565:48 26260
SCHOLTEN Michelle#526Adult Female Runner0:57:575:48 26361
WOODWARD A#335Adult Female Runner0:58:045:48 26462
CHARALAMBORS Andrew#533Adult Male Runner0:59:335:57 265191
MEE Andrea#675Adult Female Runner1:00:316:03 26663
DUGDALE S#304Adult Female Runner1:00:486:05 26764
WALSH B#422Adult Male Runner1:01:456:11 268192
COOK V#332Adult Female Runner1:01:536:11 26965
COOK D#382Adult Male Runner1:01:546:11 270193
MENNER G#381Adult Male Runner1:01:556:11 271194
MENNER M#333Adult Female Runner1:01:566:12 27266
THOMPSON V#336Adult Female Runner1:02:326:15 27367
ANDERSON Sarah#638Adult Female Runner1:02:556:17 27468
KRON Paul#586Adult Male Runner1:03:256:20 275195
ABRAHAM Norma#663Adult Female Runner1:07:146:43 27669
VAN NOOTEN A#435Adult Male Runner1:09:597:00 277196
GUNN Peter#504Adult Male Runner1:11:247:08 278197